CUTE-1 (CO-55) 1 27844U 03031E 25349.96226894 .00000370 00000+0 17937-3 0 9990 2 27844 98.6763 355.8237 0009604 4.2888 355.8371 14.24182015165594 CUBESAT XI-IV (CO-57) 1 27848U 03031J 25349.29774373 .00000342 00000+0 16942-3 0 9994 2 27848 98.6792 355.0277 0009873 23.7561 336.4071 14.23489145165212 CUBESAT XI-V 1 28895U 05043F 25349.90861328 .00001468 00000+0 24229-3 0 9994 2 28895 98.2719 137.0398 0015317 68.9442 291.3400 14.71913245 74783 CUTE-1.7+APD II (CO-65) 1 32785U 08021C 25349.95851917 .00005052 00000+0 34073-3 0 9995 2 32785 97.8078 323.0925 0007880 297.5844 62.4582 15.07084199957576 CANX-2 1 32790U 08021H 25349.89465582 .00003223 00000+0 23903-3 0 9991 2 32790 97.8423 321.5784 0009565 309.3106 50.7270 15.03796841957245 SEEDS II (CO-66) 1 32791U 08021J 25349.92123127 .00013520 00000+0 53845-3 0 9991 2 32791 97.7443 335.1764 0001650 190.0708 170.0496 15.25365799959286 SWISSCUBE 1 35932U 09051B 25349.71385257 .00001083 00000+0 22598-3 0 9998 2 35932 98.4144 249.3476 0008065 66.5041 293.7007 14.61967247862348 BEESAT-1 1 35933U 09051C 25349.15280889 .00001158 00000+0 24459-3 0 9993 2 35933 98.4076 248.7834 0006553 79.9269 280.2670 14.61283477862303 ITUPSAT1 1 35935U 09051E 25349.25853238 .00001101 00000+0 23938-3 0 9999 2 35935 98.4165 248.2673 0008746 88.3693 271.8508 14.60038836861896 TISAT 1 1 36799U 10035E 25349.79857773 .00013025 00000+0 54741-3 0 9993 2 36799 98.0598 276.4130 0003697 126.4489 233.7087 15.23569537839700 AEROCUBE 4.5A 1 38767U 12048K 25349.91654352 .00040196 00000+0 67634-3 0 9992 2 38767 64.6423 308.5659 0066277 230.8064 128.7179 15.49006897343964 STRAND-1 1 39090U 13009E 25349.45477897 .00000381 00000+0 14296-3 0 9994 2 39090 98.3821 169.2767 0009661 63.5823 296.6354 14.37007308670675 BRITE-AUSTRIA 1 39091U 13009F 25349.94840823 .00000217 00000+0 88531-4 0 9994 2 39091 98.3887 168.9861 0011285 69.6569 290.5829 14.36437726670746 NEE-01 PEGASO 1 39151U 13018B 25349.90940598 .00002505 00000+0 25035-3 0 9998 2 39151 98.0952 123.4779 0013734 51.1627 309.0814 14.92371006683350 POPACS 1 1 39268U 13055D 25349.88866941 .00218044 14916-4 60816-3 0 9993 2 39268 80.9537 207.4979 0111619 35.0412 325.8129 15.83745874644077 POPACS 2 1 39269U 13055E 25349.73119508 .00013705 00000+0 24673-3 0 9990 2 39269 80.9939 353.1453 0447772 60.5589 303.9528 14.83523697635931 POPACS 3 1 39270U 13055F 25349.93427396 .00008396 00000+0 20881-3 0 9998 2 39270 81.0049 67.2899 0566914 266.5418 87.0807 14.51910669611920 ZACUBE-1 (TSHEPISOSAT) 1 39417U 13066B 25349.86230540 .00002707 00000+0 22379-3 0 9992 2 39417 97.8057 306.4121 0042005 137.0608 223.3906 14.99113298653247 WNISAT-1 1 39423U 13066H 25349.89012905 .00000907 00000+0 17338-3 0 9994 2 39423 97.6929 147.3904 0165460 89.3000 272.7155 14.57649022640026 TRITON-1 1 39427U 13066M 25350.02031671 .00001702 00000+0 21315-3 0 9990 2 39427 97.8315 259.0590 0093261 110.4272 250.6985 14.80506686646979 GOMX-1 1 39430U 13066Q 25349.83141459 .00002589 00000+0 40026-3 0 9991 2 39430 97.6592 196.7635 0129530 306.6195 52.3154 14.68603150642990 CUBEBUG-2 (LO-74) 1 39440U 13066AA 25349.82419142 .00002854 00000+0 27855-3 0 9998 2 39440 97.8707 293.4917 0057978 275.4306 84.0300 14.92002896649632 NEE-02 KRYSAOR 1 39441U 13066AB 25349.80777141 .00002060 00000+0 23535-3 0 9993 2 39441 97.8732 285.6398 0066293 311.9177 47.6397 14.85616797648968 FUNCUBE-1 (AO-73) 1 39444U 13066AE 25349.84429784 .00005995 00000+0 40796-3 0 9995 2 39444 97.8065 313.1607 0040738 105.5645 255.0084 15.06011134652032 UWE-3 1 39446U 13066AG 25349.83312671 .00003033 00000+0 27528-3 0 9991 2 39446 97.8481 300.1852 0049676 208.8483 150.9990 14.95133576650164 BRITE-CA1 (TORONTO) 1 40020U 14033L 25349.83464721 .00001141 00000+0 17999-3 0 9999 2 40020 97.9489 117.4997 0080068 143.2280 217.4457 14.72221229615233 DUCHIFAT-1 1 40021U 14033M 25349.37333443 .00027817 00000+0 67858-3 0 9992 2 40021 98.0791 21.4634 0007293 26.1775 333.9837 15.40826787627258 NANOSATC-BR1 1 40024U 14033Q 25349.94119790 .00012061 00000+0 49003-3 0 9992 2 40024 98.0899 1.8525 0005837 97.0539 263.1360 15.24725761625994 QB50P1 1 40025U 14033R 25349.92335186 .00007188 00000+0 39361-3 0 9990 2 40025 98.0967 343.7208 0010809 125.0403 235.1842 15.14518168625257 QB50P2 1 40032U 14033Y 25349.92343792 .00005987 00000+0 35372-3 0 9993 2 40032 98.0634 330.9583 0009829 81.1017 279.1324 15.11871571624948 PERSEUS-M2 1 40037U 14033AD 25349.95957968 .00001293 00000+0 12462-3 0 9998 2 40037 97.9753 292.1234 0011560 180.2152 179.9064 14.94710313623405 PERSEUS-M1 1 40039U 14033AF 25349.81008660 .00001189 00000+0 11477-3 0 9990 2 40039 97.9461 286.2601 0011544 179.0168 181.1077 14.94768122623231 POLYITAN-1 1 40042U 14033AJ 25349.96219883 .00013950 00000+0 54857-3 0 9999 2 40042 98.1080 354.8061 0010374 70.4897 289.7459 15.25748467625584 TIGRISAT 1 40043U 14033AK 25349.93778464 .00001743 00000+0 21071-3 0 9991 2 40043 97.7558 139.5574 0049299 316.9041 42.8318 14.84139750618435 AEROCUBE 6A 1 40045U 14033AM 25349.92772096 .00005734 00000+0 51736-3 0 9992 2 40045 97.7029 154.3545 0039594 269.0307 90.6377 14.95316546619207 AEROCUBE 6B 1 40046U 14033AN 25349.89956998 .00005082 00000+0 44447-3 0 9991 2 40046 97.7030 153.7657 0038004 261.4472 98.2442 14.96639939619315 CANX-4 1 40055U 14034C 25349.59170407 .00001243 00000+0 16849-3 0 9992 2 40055 98.3359 212.9080 0011692 238.9144 121.0920 14.80794939617356 CANX-5 1 40056U 14034D 25349.86249308 .00001220 00000+0 16557-3 0 9991 2 40056 98.3362 213.2222 0011718 238.2631 121.7438 14.80812000608201 UKUBE-1 1 40074U 14037F 25349.90101879 .00008335 00000+0 52011-3 0 9998 2 40074 98.4140 329.5419 0003225 71.2690 288.8886 15.09799931620866 BRITE-PL2 (HEWELIUSZ) 1 40119U 14049B 25349.81535452 .00001333 00000+0 13144-3 0 9994 2 40119 97.8993 95.6953 0014271 3.0116 357.1186 14.93670644614067 AEROCUBE 5C 1 40965U 15058B 25349.50741408 .00003358 00000+0 30407-3 0 9990 2 40965 64.7672 113.4841 0137443 135.0987 226.1342 14.90195558338275 AEROCUBE 7 1 40966U 15058C 25349.73336268 .00004144 00000+0 34412-3 0 9994 2 40966 64.7632 98.7048 0127681 134.6092 226.5525 14.94007901338535 FOX-1A (AO-85) 1 40967U 15058D 25349.76242712 .00003388 00000+0 31303-3 0 9993 2 40967 64.7746 128.4725 0134536 128.8375 232.4837 14.89687306 86237 SINOD-D 1 1 40968U 15058E 25349.73058505 .00004435 00000+0 37035-3 0 9998 2 40968 64.7753 112.6710 0122936 126.9359 234.3091 14.94122214 89231 SNAP-3 ALICE 1 40970U 15058G 25349.79032426 .00025143 00000+0 73700-3 0 9999 2 40970 64.7611 4.0077 0044104 118.2782 242.2813 15.34181021 88540 LMRST-SAT 1 40971U 15058H 25349.80669855 .00003167 00000+0 29454-3 0 9993 2 40971 64.7751 124.3390 0136992 130.6276 230.6846 14.89341368 86235 SNAP-3 EDDIE 1 40972U 15058J 25349.38016484 .00025336 00000+0 72213-3 0 9994 2 40972 64.7535 357.2282 0047173 122.5026 238.0680 15.34909541 90606 PROPCUBE 3 1 40973U 15058K 25349.47266757 .00003834 00000+0 32861-3 0 9999 2 40973 64.7688 105.8816 0130130 132.7806 228.4341 14.92722917 87360 BISONSAT 1 40974U 15058L 25349.45354302 .00007254 00000+0 40252-3 0 9995 2 40974 64.7627 45.5377 0086602 128.1988 232.6974 15.11306037 87801 SNAP-3 JIMI 1 40975U 15058M 25349.45150988 .00005031 00000+0 36729-3 0 9995 2 40975 64.7668 80.0578 0112439 130.9302 230.1616 14.99852794 86641 PROPCUBE 1 (FLORA) 1 40976U 15058N 25349.86482249 .00003330 00000+0 32026-3 0 9995 2 40976 64.7735 142.8991 0136407 132.7546 228.5139 14.88008292 88977 SINOD-D 3 1 40977U 15058P 25349.80170218 .00004388 00000+0 38255-3 0 9994 2 40977 64.7719 127.7710 0124953 131.4631 229.7294 14.92333248 87370 HORYU-4 1 41340U 16012D 25349.90138778 .00038858 00000+0 64324-3 0 9991 2 41340 30.9943 288.2684 0006965 263.9527 96.0329 15.50891046542043 RAVAN 1 41849U 16067B 25349.57981401 .00020496 00000+0 52334-3 0 9994 2 41849 98.0162 214.9883 0005997 302.3969 57.6694 15.39510464499312 CELTEE 1 1 41850U 16067C 25349.83245896 .00004077 00000+0 20847-3 0 9997 2 41850 98.0878 198.9044 0002040 106.8317 253.3139 15.17289800498050 OPTICUBE 04 1 41851U 16067D 25349.81994441 .00002161 00000+0 14245-3 0 9990 2 41851 98.0827 187.4438 0016614 22.3967 337.7982 15.08573947497511 AEROCUBE 8D 1 41852U 16067E 25349.83792928 .00005331 00000+0 24311-3 0 9996 2 41852 98.0899 201.1862 0004984 57.3915 302.7799 15.21111826498163 AEROCUBE 8C 1 41853U 16067F 25349.82409470 .00006113 00000+0 27664-3 0 9996 2 41853 98.0760 198.6521 0005557 349.8500 10.2621 15.21304131498156 CORVUS BC2 1 42846U 17042X 25349.89661235 .00002555 00000+0 18508-3 0 9992 2 42846 97.3834 153.7835 0014167 23.8999 336.2883 15.04742802459487 CORVUS BC1 1 42847U 17042Y 25349.91673103 .00002880 00000+0 20686-3 0 9994 2 42847 97.3879 154.4846 0012327 4.1491 355.9836 15.04992888459513 MAKERSAT 0 1 43016U 17073D 25349.61524180 .00014696 00000+0 49322-3 0 9990 2 43016 97.4896 226.5183 0125922 201.1535 158.4470 15.23585973438433 SIRION PATHFINDER-2 1 43759U 18099B 25349.85531891 .00003767 00000+0 22070-3 0 9994 2 43759 97.4545 38.2555 0008377 204.9775 155.1052 15.12371269384899 CORVUS BC4 1 43767U 18099K 25349.56123485 .00003399 00000+0 20960-3 0 9994 2 43767 97.4352 32.8677 0007111 276.1945 83.8475 15.10577265384667 SPACEBEE-7 1 43816U 18099BL 25349.73343753 .00073872 00000+0 94016-3 0 9996 2 43816 97.4717 65.5536 0002977 154.8658 205.2743 15.59109455385992 SHIELDS 1 1 43850U 18104B 25349.77204833 .00107701 00000+0 43484-3 0 9992 2 43850 85.0068 261.5070 0008218 99.4174 260.8032 15.86002269391130 M2 PATHFINDER 1 45727U 20037E 25349.50909518 .00002101 00000+0 15837-3 0 9997 2 45727 97.8134 173.7696 0013625 58.3123 301.9429 15.03521024297882 NETSAT-4 1 46504U 20068U 25349.95286304 .00012061 00000+0 33680-3 0 9997 2 46504 97.8593 339.4656 0004298 249.0809 110.9974 15.36878153287569 NETSAT-3 1 46505U 20068V 25349.93297986 .00013808 00000+0 40311-3 0 9993 2 46505 97.8618 337.9570 0003961 274.3285 85.7504 15.35449614287496 NETSAT-1 1 46506U 20068W 25349.93743941 .00010044 00000+0 35727-3 0 9995 2 46506 97.8665 334.2268 0004018 301.7045 58.3801 15.29191967287243 NETSAT-2 1 46507U 20068X 25349.95130991 .00015067 00000+0 41333-3 0 9993 2 46507 97.8603 338.9416 0002720 305.1332 54.9656 15.37379059287505 WILDTRACKCUBE-SIMBA 1 47941U 21022K 25349.91427940 .00083500 00000+0 76297-3 0 9990 2 47941 97.4056 260.7551 0005912 19.5433 340.6053 15.67559993262589 GREENCUBE (IO-117) 1 53109U 22080E 25348.44384664 -.00000003 00000+0 00000+0 0 9993 2 53109 70.1577 2.4881 0009040 327.2145 32.7953 6.42583234 80191 SITRO-AIS 5 (KATYS) 1 57176U 23091L 25349.99807370 .00008862 00000+0 36180-3 0 9991 2 57176 97.5349 47.5292 0013360 33.7585 326.4500 15.24561010136384 SITRO-AIS 6 (CHIRKIN) 1 57192U 23091AC 25349.98295729 .00005557 00000+0 23873-3 0 9990 2 57192 97.5350 47.3742 0013521 36.3894 323.8259 15.23014951136370 SITRO-AIS 8 (ANOKHIN) 1 57193U 23091AD 25349.96366557 .00010141 00000+0 39058-3 0 9994 2 57193 97.5344 48.4487 0012578 32.2640 327.9365 15.26480354136445 SITRO-AIS 7 (FARTUSHNIY) 1 57194U 23091AE 25349.95542661 .00004866 00000+0 21075-3 0 9993 2 57194 97.5350 47.2463 0013421 37.1848 323.0315 15.22808299136367 SITRO-AIS 10 (BURDAEV) 1 57199U 23091AK 25349.99747450 .00014137 00000+0 47367-3 0 9999 2 57199 97.5358 51.9460 0008169 15.1464 345.0019 15.31010295136661 SITRO-AIS 9 (SHCHUKIN) 1 57201U 23091AM 25349.97742009 .00013213 00000+0 44697-3 0 9993 2 57201 97.5358 51.7689 0008210 15.6338 344.5154 15.30716737136654 SITRO-AIS 12 (SMIRENNIY) 1 57204U 23091AQ 25349.93321029 .00012920 00000+0 43420-3 0 9994 2 57204 97.5367 52.0916 0007951 9.2496 350.8889 15.30936218136663 SITRO-AIS 11 (SHEFFER) 1 57208U 23091AU 25349.98850144 .00013710 00000+0 45662-3 0 9996 2 57208 97.5365 52.3000 0007862 8.9028 351.2351 15.31214026136688 SITRO-AIS 25 1 59066U 24039R 25349.95929105 .00005677 00000+0 46238-3 0 9997 2 59066 95.3955 109.2922 0148044 247.7167 110.8304 14.91465004 97393 SITRO-AIS 26 1 59067U 24039S 25349.93766227 .00005000 00000+0 40921-3 0 9993 2 59067 95.3952 109.2090 0148402 248.2093 110.3286 14.91290077 97388 SITRO-AIS 27 1 59068U 24039T 25349.95650844 .00005787 00000+0 46954-3 0 9997 2 59068 95.3956 109.4147 0147476 247.1169 111.4430 14.91662825 97400 SITRO-AIS 28 1 59071U 24039U 25349.93834030 .00005117 00000+0 41514-3 0 9994 2 59071 95.3953 109.4398 0147444 247.0638 111.4970 14.91705192 97408 GRBBETA 1 60237U 24128C 25349.80812236 .00003755 00000+0 27081-3 0 9998 2 60237 61.9889 138.8210 0056116 97.1677 263.5800 15.04788623 78654 OOV-CUBE (TUBSAT-30) 1 60240U 24128F 25349.87656643 .00002333 00000+0 18867-3 0 9990 2 60240 61.9938 144.2641 0058406 94.8844 265.8918 15.01629371 78573 ROBUSTA-3A (MEDITERRAN*) 1 60243U 24128J 25349.91505380 .00005814 00000+0 37384-3 0 9991 2 60243 61.9857 134.7954 0056125 91.5156 269.2368 15.08266999 78749 LASARSAT 1 62391U 24247Q 25349.01582129 .00016996 00000+0 50417-3 0 9991 2 62391 44.9767 208.0626 0002331 162.2311 197.8657 15.34657893 54912 CROCUBE 1 62394U 24247T 25349.61536432 .00017331 00000+0 50253-3 0 9998 2 62394 44.9731 204.0243 0003659 159.5830 200.5202 15.35359415 55016